ZAF056 FLKK-DAAG

Flight info

Callsign ZAF056
Flight time N/A
Altitude 41000
Route VLS UG652 ITLOR UM214 RAPOL UA607 DIR UB730 DJA J61 ILZ UB727 TILMA UA605 RIMEL UR985 BSA J66 ALR
Aircraft FA50/M-SDFGHIM1RWXY/H

Departure

Time 2026-05-01 10:37
Airport Kenneth Kaunda International Airport (FLKK)

Arrival

Time N/A
Airport Houari Boumediene Airport (DAAG)
Time Latitude Longitude Altitude Speed Heading
2026-05-01 10:12 -15.32620 28.44502 3807 ft 0 kts
2026-05-01 10:33 -15.32653 28.44521 3803 ft 8 kts 158°
2026-05-01 10:33 -15.32782 28.44509 3795 ft 10 kts 231°
2026-05-01 10:34 -15.32814 28.44441 3791 ft 11 kts 271°
2026-05-01 10:34 -15.32809 28.44373 3792 ft 6 kts 274°
2026-05-01 10:34 -15.32836 28.44354 3788 ft 8 kts 156°
2026-05-01 10:35 -15.32845 28.44361 3786 ft 0 kts 141°
2026-05-01 10:35 -15.32850 28.44365 3786 ft 3 kts 141°
2026-05-01 10:35 -15.32891 28.44399 3781 ft 10 kts 142°
2026-05-01 10:35 -15.32952 28.44452 3781 ft 11 kts 139°
2026-05-01 10:36 -15.33028 28.44655 3777 ft 34 kts 95°
2026-05-01 10:36 -15.33071 28.45143 3767 ft 99 kts 95°
2026-05-01 10:36 -15.33150 28.46068 3776 ft 151 kts 96°
2026-05-01 10:37 -15.33284 28.47175 4198 ft 163 kts 97°
2026-05-01 10:37 -15.33505 28.49549 5700 ft 165 kts 86°
2026-05-01 10:37 -15.33117 28.50712 6076 ft 193 kts 49°
2026-05-01 10:38 -15.31846 28.51380 6348 ft 231 kts
2026-05-01 10:38 -15.30201 28.50962 6811 ft 264 kts 329°
2026-05-01 10:38 -15.28944 28.49481 7408 ft 289 kts 300°
2026-05-01 10:38 -15.28057 28.47584 8106 ft 295 kts 296°
2026-05-01 10:39 -15.27214 28.45676 8774 ft 294 kts 297°
2026-05-01 10:39 -15.26083 28.43962 9406 ft 289 kts 321°
2026-05-01 10:39 -15.24493 28.42720 10045 ft 287 kts 329°
2026-05-01 10:39 -15.22870 28.41551 10664 ft 287 kts 329°
2026-05-01 10:40 -15.21262 28.40364 11267 ft 288 kts 329°
2026-05-01 10:40 -15.19635 28.39159 11863 ft 288 kts 329°
2026-05-01 10:40 -15.18010 28.37958 12441 ft 288 kts 329°
2026-05-01 10:40 -15.16383 28.36755 13001 ft 288 kts 328°
2026-05-01 10:41 -15.14775 28.35567 13539 ft 288 kts 328°
2026-05-01 10:41 -15.13146 28.34363 14068 ft 288 kts 328°
2026-05-01 10:41 -15.09899 28.31964 15080 ft 289 kts 327°
2026-05-01 10:42 -15.08261 28.30754 15572 ft 289 kts 327°
2026-05-01 10:42 -15.06623 28.29545 16055 ft 292 kts 327°
2026-05-01 10:42 -15.04961 28.28317 16555 ft 296 kts 326°
2026-05-01 10:42 -15.03299 28.27090 17060 ft 299 kts 326°
2026-05-01 10:43 -15.01580 28.25822 17583 ft 301 kts 326°
2026-05-01 10:43 -14.99874 28.24563 18101 ft 302 kts 325°
2026-05-01 10:43 -14.98163 28.23300 18617 ft 303 kts 325°
2026-05-01 10:43 -14.96458 28.22043 19128 ft 304 kts 324°
2026-05-01 10:44 -14.94725 28.20764 19641 ft 304 kts 324°
2026-05-01 10:44 -14.92991 28.19486 20149 ft 304 kts 324°
2026-05-01 10:44 -14.91266 28.18215 20648 ft 304 kts 323°
2026-05-01 10:44 -14.89567 28.16964 21130 ft 303 kts 323°
2026-05-01 10:45 -14.87828 28.15683 21609 ft 302 kts 323°
2026-05-01 10:45 -14.86121 28.14425 22070 ft 302 kts 322°
2026-05-01 10:45 -14.84411 28.13166 22523 ft 301 kts 322°
2026-05-01 10:45 -14.82728 28.11926 22960 ft 300 kts 322°
2026-05-01 10:46 -14.81033 28.10678 23391 ft 299 kts 322°
2026-05-01 10:46 -14.79360 28.09446 23806 ft 298 kts 322°
2026-05-01 10:46 -14.77670 28.08203 24217 ft 296 kts 322°
2026-05-01 10:46 -14.75976 28.06956 24619 ft 295 kts 321°
2026-05-01 10:47 -14.74315 28.05734 25004 ft 294 kts 321°
2026-05-01 10:47 -14.72649 28.04508 25380 ft 293 kts 321°
2026-05-01 10:47 -14.70992 28.03289 25745 ft 292 kts 321°
2026-05-01 10:47 -14.69343 28.02077 26099 ft 291 kts 321°
2026-05-01 10:48 -14.67708 28.00875 26441 ft 290 kts 321°
2026-05-01 10:48 -14.66061 27.99664 26777 ft 289 kts 321°
2026-05-01 10:48 -14.64439 27.98472 27099 ft 288 kts 321°
2026-05-01 10:48 -14.62805 27.97272 27414 ft 287 kts 321°
2026-05-01 10:49 -14.61182 27.96079 27719 ft 286 kts 321°
2026-05-01 10:49 -14.59567 27.94892 28014 ft 285 kts 321°
2026-05-01 10:49 -14.57954 27.93708 28300 ft 284 kts 321°
2026-05-01 10:49 -14.56353 27.92533 28576 ft 283 kts 321°
2026-05-01 10:50 -14.54732 27.91343 28848 ft 283 kts 321°
2026-05-01 10:50 -14.53137 27.90172 29108 ft 282 kts 321°
2026-05-01 10:50 -14.51551 27.89008 29359 ft 281 kts 321°
2026-05-01 10:50 -14.49954 27.87837 29597 ft 281 kts 321°
2026-05-01 10:51 -14.48349 27.86658 29781 ft 288 kts 321°
2026-05-01 10:51 -14.46700 27.85448 29974 ft 295 kts 321°
2026-05-01 10:51 -14.45022 27.84218 30164 ft 302 kts 321°
2026-05-01 10:51 -14.43301 27.82956 30355 ft 309 kts 321°
2026-05-01 10:52 -14.41525 27.81655 30546 ft 316 kts 321°
2026-05-01 10:52 -14.39734 27.80342 30734 ft 322 kts 321°
2026-05-01 10:52 -14.37889 27.78990 30924 ft 329 kts 321°
2026-05-01 10:52 -14.35989 27.77599 31114 ft 336 kts 321°
2026-05-01 10:53 -14.34093 27.76210 31299 ft 343 kts 322°
2026-05-01 10:53 -14.32131 27.74773 31486 ft 349 kts 322°
2026-05-01 10:53 -14.30147 27.73321 31671 ft 355 kts 322°
2026-05-01 10:53 -14.28101 27.71824 31859 ft 361 kts 322°
2026-05-01 10:54 -14.26044 27.70319 32043 ft 367 kts 322°
2026-05-01 10:54 -14.23972 27.68804 32225 ft 372 kts 322°
2026-05-01 10:54 -14.21845 27.67270 32408 ft 377 kts 322°
2026-05-01 10:54 -14.19674 27.65712 32591 ft 382 kts 323°
2026-05-01 10:55 -14.17495 27.64150 32771 ft 386 kts 323°
2026-05-01 10:55 -14.15290 27.62569 32951 ft 391 kts 323°
2026-05-01 10:55 -14.13055 27.60968 33131 ft 394 kts 323°
2026-05-01 10:55 -14.10788 27.59344 33311 ft 398 kts 323°
2026-05-01 10:56 -14.08496 27.57703 33490 ft 402 kts 323°
2026-05-01 10:56 -14.06210 27.56066 33667 ft 405 kts 323°
2026-05-01 10:56 -14.03880 27.54398 33846 ft 408 kts 323°
2026-05-01 10:56 -14.01559 27.52737 34022 ft 411 kts 323°
2026-05-01 10:57 -13.99200 27.51049 34198 ft 413 kts 323°
2026-05-01 10:57 -13.96853 27.49370 34373 ft 415 kts 323°
2026-05-01 10:57 -13.94471 27.47667 34548 ft 418 kts 323°
2026-05-01 10:57 -13.92096 27.45968 34722 ft 420 kts 323°
2026-05-01 10:58 -13.89696 27.44253 34896 ft 422 kts 323°
2026-05-01 10:58 -13.87270 27.42520 35070 ft 423 kts 323°
2026-05-01 10:58 -13.84850 27.40791 35243 ft 425 kts 323°
2026-05-01 10:58 -13.82452 27.39079 35412 ft 426 kts 323°
2026-05-01 10:59 -13.80008 27.37334 35584 ft 428 kts 323°
2026-05-01 10:59 -13.77558 27.35585 35756 ft 429 kts 323°
2026-05-01 10:59 -13.75108 27.33836 35932 ft 430 kts 323°
2026-05-01 10:59 -13.72669 27.32095 36109 ft 431 kts 323°
2026-05-01 11:00 -13.70205 27.30338 36286 ft 431 kts 323°
2026-05-01 11:00 -13.67750 27.28587 36462 ft 432 kts 323°
2026-05-01 11:00 -13.65301 27.26841 36637 ft 432 kts 323°
2026-05-01 11:00 -13.62834 27.25083 36812 ft 433 kts 323°
2026-05-01 11:01 -13.60367 27.23325 36987 ft 433 kts 323°
2026-05-01 11:01 -13.57892 27.21562 37163 ft 433 kts 323°
2026-05-01 11:01 -13.55439 27.19815 37336 ft 433 kts 323°
2026-05-01 11:01 -13.52978 27.18062 37510 ft 433 kts 323°
2026-05-01 11:02 -13.50489 27.16291 37685 ft 433 kts 323°
2026-05-01 11:02 -13.48020 27.14533 37859 ft 433 kts 323°
2026-05-01 11:02 -13.45556 27.12780 38032 ft 432 kts 323°
2026-05-01 11:02 -13.43115 27.11044 38204 ft 432 kts 323°
2026-05-01 11:03 -13.40632 27.09279 38378 ft 432 kts 323°
2026-05-01 11:03 -13.38166 27.07525 38552 ft 431 kts 323°
2026-05-01 11:03 -13.35728 27.05792 38723 ft 431 kts 323°
2026-05-01 11:03 -13.33258 27.04038 38896 ft 430 kts 323°
2026-05-01 11:04 -13.30836 27.02317 39067 ft 429 kts 323°
2026-05-01 11:04 -13.28390 27.00580 39239 ft 429 kts 323°
2026-05-01 11:04 -13.25958 26.98853 39409 ft 428 kts 323°
2026-05-01 11:04 -13.23523 26.97124 39581 ft 427 kts 323°
2026-05-01 11:05 -13.21088 26.95396 39752 ft 426 kts 323°
2026-05-01 11:05 -13.18646 26.93663 39924 ft 425 kts 323°
2026-05-01 11:05 -13.16233 26.91952 40094 ft 424 kts 323°
2026-05-01 11:05 -13.13828 26.90246 40264 ft 423 kts 323°
2026-05-01 11:06 -13.11390 26.88518 40436 ft 422 kts 323°
2026-05-01 11:06 -13.09022 26.86831 40604 ft 421 kts 321°
2026-05-01 11:06 -13.06912 26.84764 40788 ft 416 kts 308°
2026-05-01 11:07 -13.03921 26.79789 41145 ft 410 kts 297°
2026-05-01 11:07 -13.02600 26.77200 41314 ft 409 kts 297°
2026-05-01 11:07 -13.01286 26.74624 41466 ft 408 kts 297°
2026-05-01 11:07 -12.99977 26.72058 41431 ft 412 kts 297°
2026-05-01 11:08 -12.97305 26.66826 41265 ft 421 kts 297°
2026-05-01 11:09 -12.93222 26.58837 41235 ft 427 kts 297°
2026-05-01 11:09 -12.90437 26.53392 41235 ft 430 kts 297°
2026-05-01 11:10 -12.86258 26.45229 41232 ft 431 kts 297°
2026-05-01 11:10 -12.83485 26.39818 41234 ft 431 kts 297°
2026-05-01 11:11 -12.80695 26.34375 41235 ft 431 kts 297°
2026-05-01 11:11 -12.77909 26.28941 41238 ft 432 kts 297°
2026-05-01 11:12 -12.75117 26.23501 41238 ft 433 kts 297°
2026-05-01 11:12 -12.72329 26.18073 41237 ft 433 kts 297°
2026-05-01 11:13 -12.69514 26.12595 41237 ft 433 kts 297°
2026-05-01 11:13 -12.66717 26.07154 41237 ft 434 kts 297°
2026-05-01 11:14 -12.63904 26.01688 41236 ft 434 kts 297°
2026-05-01 11:14 -12.61111 25.96263 41236 ft 434 kts 297°
2026-05-01 11:15 -12.58291 25.90787 41236 ft 434 kts 297°
2026-05-01 11:15 -12.55480 25.85335 41235 ft 434 kts 297°
2026-05-01 11:16 -12.52672 25.79890 41235 ft 435 kts 297°
2026-05-01 11:16 -12.49853 25.74427 41235 ft 435 kts 297°
2026-05-01 11:17 -12.47040 25.68980 41234 ft 435 kts 297°
2026-05-01 11:17 -12.44220 25.63522 41234 ft 435 kts 297°
2026-05-01 11:18 -12.41402 25.58072 41234 ft 434 kts 297°
2026-05-01 11:18 -12.38588 25.52631 41233 ft 434 kts 297°
2026-05-01 11:19 -12.35777 25.47201 41233 ft 434 kts 297°
2026-05-01 11:19 -12.32952 25.41747 41233 ft 434 kts 297°
2026-05-01 11:20 -12.30133 25.36306 41233 ft 434 kts 297°
2026-05-01 11:20 -12.27303 25.30849 41238 ft 434 kts 297°
2026-05-01 11:21 -12.24488 25.25425 41237 ft 435 kts 297°
2026-05-01 11:21 -12.21652 25.19962 41236 ft 435 kts 297°
2026-05-01 11:22 -12.18813 25.14514 41235 ft 435 kts 300°
2026-05-01 11:22 -12.16961 25.12130 41267 ft 435 kts 314°
2026-05-01 11:22 -12.14627 25.10191 41243 ft 437 kts 331°
2026-05-01 11:23 -12.11805 25.09091 41276 ft 438 kts 343°
2026-05-01 11:23 -12.08846 25.08323 41236 ft 440 kts 344°
2026-05-01 11:23 -12.02930 25.06804 41236 ft 441 kts 344°
2026-05-01 11:24 -11.96976 25.05262 41235 ft 441 kts 344°
2026-05-01 11:25 -11.88093 25.02963 41237 ft 442 kts 344°
2026-05-01 11:25 -11.79179 25.00657 41237 ft 442 kts 344°
2026-05-01 11:26 -11.70277 24.98356 41236 ft 443 kts 344°
2026-05-01 11:27 -11.64307 24.96814 41239 ft 443 kts 344°
2026-05-01 11:27 -11.58391 24.95286 41249 ft 443 kts 344°
2026-05-01 11:28 -11.52424 24.93746 41259 ft 443 kts 344°
2026-05-01 11:28 -11.46477 24.92210 41263 ft 443 kts 344°
2026-05-01 11:29 -11.37571 24.89911 41262 ft 443 kts 344°
2026-05-01 11:30 -11.28623 24.87602 41204 ft 445 kts 344°
2026-05-01 11:30 -11.22657 24.86064 41208 ft 444 kts 344°
2026-05-01 11:31 -11.16669 24.84520 41208 ft 444 kts 344°
2026-05-01 11:31 -11.10707 24.82984 41207 ft 444 kts 344°
2026-05-01 11:32 -11.04766 24.81455 41207 ft 444 kts 344°
2026-05-01 11:32 -10.98788 24.79916 41207 ft 444 kts 344°
2026-05-01 11:33 -10.92807 24.78377 41207 ft 444 kts 345°
2026-05-01 11:33 -10.86855 24.76846 41210 ft 444 kts 345°
2026-05-01 11:34 -10.80886 24.75312 41209 ft 444 kts 345°
2026-05-01 11:34 -10.74912 24.73776 41209 ft 444 kts 345°
2026-05-01 11:35 -10.68953 24.72246 41209 ft 444 kts 345°
2026-05-01 11:35 -10.62991 24.70715 41208 ft 444 kts 345°
2026-05-01 11:36 -10.57006 24.69179 41208 ft 444 kts 345°
2026-05-01 11:36 -10.51040 24.67648 41208 ft 444 kts 345°
2026-05-01 11:37 -10.45050 24.66112 41208 ft 444 kts 345°
2026-05-01 11:37 -10.39099 24.64586 41208 ft 445 kts 345°
2026-05-01 11:38 -10.33107 24.63050 41207 ft 445 kts 345°
2026-05-01 11:38 -10.27167 24.61529 41207 ft 445 kts 345°
2026-05-01 11:39 -10.21208 24.60003 41207 ft 445 kts 345°
2026-05-01 11:39 -10.15228 24.58472 41207 ft 445 kts 345°
2026-05-01 11:40 -10.09249 24.56942 41207 ft 445 kts 345°
2026-05-01 11:40 -10.03228 24.55402 41206 ft 445 kts 345°
2026-05-01 11:41 -9.97270 24.53881 41206 ft 444 kts 345°
2026-05-01 11:41 -9.91290 24.52354 41206 ft 444 kts 345°
2026-05-01 11:42 -9.85321 24.50832 41209 ft 445 kts 345°
2026-05-01 11:42 -9.79333 24.49305 41208 ft 445 kts 345°
2026-05-01 11:43 -9.73378 24.47787 41208 ft 445 kts 345°
2026-05-01 11:43 -9.67362 24.46254 41208 ft 445 kts 345°
2026-05-01 11:44 -9.58394 24.43970 41207 ft 445 kts 345°